Location: Alessandria
(44.9000°N, 8.6170°E)
Time: 18:13:36
(UTC+02:00)

ISS - Pass Details

Date: 16 May 2021
Orbit: 417 x 422 km, 51.6° (Epoch: 18 June)

Event Time Altitude Azimuth Distance (km) Brightness Sun altitude
Rises 04:28:05 0° 296° (WNW) 2,374 -0.1 -13.2°
Reaches altitude 10° 04:30:16 10° 288° (WNW) 1,507 -1.2 -13.0°
Maximum altitude 04:33:26 38° 219° (SW) 655 -3.3 -12.6°
Drops below altitude 10° 04:36:36 10° 149° (SSE) 1,501 -1.1 -12.2°
Sets 04:38:46 0° 141° (SE) 2,362 0.0 -11.9°
